Home   Weather   Jackson   Past weeks

Flag for USA Past Weather in Jackson, Mississippi, USA — Yesterday and Last 2 Weeks

Now
78 °F

Sunny.


Feels Like: 81 °F
Forecast: 74 / 93 °F
Wind: 6 mph from Southwest

Location: Hawkins Field

Current Time: Jul 28, 2017 at 8:13:14 am

Latest Report: Jul 28, 2017 at 6:53 am


Visibility: 10 mi

Pressure: 29.93 "Hg

Humidity: 87%

Dew Point: 74 °F

Location of JacksonLocation

Past Weather in Jackson — Graph

°F

Jackson Temperature Yesterday

Maximum temperature yesterday: 94 °F (at 2:53 pm)
Minimum temperature yesterday: 74 °F (at 3:53 am)
Average temperature yesterday: 84 °F

High & Low Weather Summary for the Past Weeks

 TemperatureHumidityPressure
High96 °F (Jul 19, 4:53 pm)100% (Jul 13, 12:41 pm)30.18 "Hg (Jul 13, 12:41 pm)
Low72 °F (Jul 26, 4:53 am)35% (Jul 26, 4:53 pm)29.86 "Hg (Jul 16, 5:53 pm)
Average81 °F83%30.02 "Hg
* Reported Jul 13 6:53 am — Jul 28 6:53 am, Jackson. Weather by CustomWeather, © 2017

Note: Actual official high and low records may vary slightly from our data, if they occured in-between our weather recording intervals... More about our weather records

Advertising

Jackson Weather History for the Previous 24 Hours

Scroll right to see more
 ConditionsComfort  
Time TempWeatherWind HumidityBarometerVisibility
6:53 am
Fri, Jul 28
78 °FSunny.6 mph87%29.93 "Hg10 mi
5:53 am79 °FClear.7 mph82%29.92 "Hg10 mi
4:53 am79 °FClear.7 mph82%29.90 "Hg10 mi
3:53 am78 °FClear.5 mph82%29.90 "Hg10 mi
2:53 am77 °FClear.3 mph85%29.91 "Hg10 mi
1:53 am78 °FClear.5 mph82%29.91 "Hg10 mi
12:53 am78 °FClear.5 mph82%29.92 "Hg10 mi
11:53 pm
Thu, Jul 27
80 °FClear.3 mph74%29.92 "Hg10 mi
10:53 pm81 °FClear.3 mph74%29.93 "Hg10 mi
9:53 pm82 °FClear.No wind74%29.94 "Hg10 mi
8:53 pm84 °FClear.3 mph70%29.93 "Hg10 mi
7:53 pm85 °FSunny.5 mph70%29.92 "Hg10 mi
6:53 pm89 °FSunny.7 mph55%29.93 "Hg10 mi
5:53 pm92 °FSunny.8 mph52%29.94 "Hg10 mi
4:53 pm93 °FSunny.10 mph50%29.95 "Hg10 mi
3:53 pm94 °FSunny.8 mph48%29.97 "Hg10 mi
2:53 pm94 °FSunny.7 mph46%29.99 "Hg10 mi
1:53 pm93 °FSunny.8 mph56%30.01 "Hg10 mi
12:53 pm92 °FScattered clouds.8 mph58%30.03 "Hg10 mi
11:53 am91 °FPassing clouds.7 mph64%30.05 "Hg10 mi
10:53 am89 °FSunny.6 mph68%30.07 "Hg10 mi
9:53 am87 °FSunny.8 mph72%30.07 "Hg10 mi
8:53 am84 °FSunny.6 mph80%30.06 "Hg10 mi
Weather by CustomWeather, © 2017

See weather overviewHow to use our weather pages